Location: Poughquag
(41.6090°N, 73.6820°W)
Time: 23:36:57
(UTC-05:00)

Envisat - Visible Passes

Search period start: 18 January 2019 00:00
Search period end: 28 January 2019 00:00
Orbit: 764 x 766 km, 98.2° (Epoch: 18 January)

Date Brightness Start Highest point End Pass type
(mag) Time Alt. Az. Time Alt. Az. Time Alt. Az.
18 Jan 5.9 06:24:08 10° NE 06:27:36 18° E 06:31:02 10° SE visible
18 Jan 3.9 17:38:44 10° ESE 17:42:50 25° ENE 17:46:56 10° NNE visible
18 Jan 4.3 19:16:54 10° SSW 19:21:38 39° W 19:26:24 10° NNW visible
19 Jan 2.9 18:39:43 10° SSE 18:44:48 88° WSW 18:49:55 10° NNW visible
20 Jan 3.3 18:03:25 10° SE 18:08:11 42° ENE 18:12:57 10° N visible
20 Jan 5.3 19:43:23 10° SW 19:47:21 23° W 19:51:20 10° NW visible
21 Jan 6.1 06:13:35 10° ENE 06:16:16 14° E 06:18:56 10° ESE visible
21 Jan 4.2 17:28:04 10° ESE 17:31:44 21° ENE 17:35:25 10° NNE visible
21 Jan 3.8 19:05:28 10° S 19:10:23 50° W 19:15:20 10° NNW visible
22 Jan 2.9 18:28:34 10° SSE 18:33:37 74° ENE 18:38:42 10° N visible
22 Jan 6.0 20:10:58 10° WSW 20:13:10 13° W 20:15:23 10° WNW visible
23 Jan 5.6 06:37:54 10° NE 06:42:04 25° E 06:46:13 10° SSE visible
23 Jan 3.6 17:52:30 10° SE 17:57:02 34° ENE 18:01:35 10° N visible
23 Jan 4.9 19:31:43 10° SSW 19:36:03 28° W 19:40:27 10° NW visible
24 Jan 6.4 06:03:37 10° ENE 06:04:55 11° E 06:06:13 10° ESE visible
24 Jan 3.4 18:54:08 10° S 18:59:09 64° W 19:04:13 10° NNW visible
25 Jan 3.0 18:17:28 10° SSE 18:22:26 59° ENE 18:27:26 10° N visible
25 Jan 5.7 19:58:41 10° SW 20:01:50 16° W 20:04:59 10° NW visible
26 Jan 5.9 06:27:04 10° NE 06:30:46 20° E 06:34:26 10° SE visible
26 Jan 3.8 17:41:41 10° ESE 17:45:55 27° ENE 17:50:11 10° N visible
26 Jan 4.5 19:20:09 10° SSW 19:24:47 36° W 19:29:27 10° NNW visible
27 Jan 3.0 18:42:51 10° S 18:47:56 81° WSW 18:53:02 10° NNW visible
